Location: *
(48.8667°N, 2.3331°E)
Time: 11:30:26
(UTC+00:00)

SL-4 R/B - Pass Details

Date: 09 April 2020
Orbit: 428 x 666 km, 51.6° (Epoch: 25 May)

Event Time Altitude Azimuth Distance (km) Brightness Sun altitude
Rises 20:40:37 0° 274° (W) 2,392 6.2 -19.4°
Reaches altitude 10° 20:42:44 10° 279° (W) 1,528 5.1 -19.7°
Maximum altitude 20:46:04 52° 357° (N) 550 2.2 -20.1°
Enters shadow 20:46:52 41° 43° (NE) 646 2.3 -20.2°
